Home   Weather   Corona   Past weeks
Flag for USA

Past Weather in Corona, California, USA — Yesterday and Last 2 Weeks

Now
71 °F

Clear.


Feels Like: 73 °F
Forecast: 98 / 66 °F
Wind: 3 mph from Southeast

Location: Chino Airport

Current Time: Jul 16, 2019 at 1:26:26 am

Latest Report: Jul 15, 2019 at 11:53 pm


Visibility: 10 mi

Pressure: 29.84 "Hg

Humidity: 73%

Dew Point: 62 °F

Location of CoronaLocation

Past Weather in Corona — Graph

°F

Corona Temperature Yesterday

Maximum temperature yesterday: 98 °F (at 12:53 pm)
Minimum temperature yesterday: 61 °F (at 4:53 am)
Average temperature yesterday: 79 °F

High & Low Weather Summary for the Past Weeks

 TemperatureHumidityPressure
High98 °F (Jul 12, 1:53 pm)100% (Jul 3, 5:53 am)30.06 "Hg (Jul 3, 5:53 am)
Low59 °F (Jul 1, 3:53 am)19% (Jul 14, 2:53 pm)29.75 "Hg (Jul 12, 5:53 pm)
Average73 °F65%29.93 "Hg
* Reported Jun 30 11:53 pm — Jul 15 11:53 pm, Corona. Weather by CustomWeather, © 2019

Note: Actual official high and low records may vary slightly from our data, if they occured in-between our weather recording intervals... More about our weather records

Advertising

Corona Weather History for the Previous 24 Hours

Scroll right to see more
 ConditionsComfort  
Time TempWeatherWind HumidityBarometerVisibility
11:53 pm
Mon, Jul 15
71 °FClear.3 mph73%29.84 "Hg10 mi
10:53 pm75 °FClear.5 mph62%29.85 "Hg9 mi
9:53 pm77 °FClear.6 mph58%29.85 "Hg10 mi
8:53 pm79 °FClear.8 mph50%29.83 "Hg10 mi
7:53 pm82 °FSunny.8 mph35%29.82 "Hg10 mi
6:53 pm87 °FSunny.13 mph32%29.81 "Hg10 mi
5:53 pm92 °FSunny.12 mph25%29.81 "Hg10 mi
4:53 pm93 °FSunny.13 mph24%29.82 "Hg10 mi
3:53 pm96 °FSunny.13 mph19%29.84 "Hg10 mi
2:53 pm96 °FSunny.12 mph23%29.85 "Hg10 mi
1:53 pm98 °FSunny.10 mph20%29.86 "Hg10 mi
12:53 pm98 °FSunny.5 mph25%29.87 "Hg10 mi
11:53 am93 °FSunny.7 mph31%29.89 "Hg10 mi
10:53 am88 °FSunny.5 mph34%29.91 "Hg10 mi
9:53 am81 °FSunny.5 mph49%29.92 "Hg10 mi
8:53 am75 °FSunny.No wind64%29.93 "Hg10 mi
7:53 am69 °FSunny.No wind84%29.93 "Hg10 mi
6:53 am64 °FSunny.No wind100%29.93 "Hg10 mi
5:53 am62 °FFog.No wind96%29.92 "Hg5 mi
4:53 am61 °FClear.No wind97%29.91 "Hg7 mi
3:53 am62 °FClear.No wind100%29.91 "Hg7 mi
2:53 am63 °FClear.No wind93%29.91 "Hg8 mi
1:53 am64 °FClear.No wind90%29.92 "Hg8 mi
Weather by CustomWeather, © 2019

See weather overview

LIVE PARTIAL LUNAR ECLIPSE – Watch the eclipse as it happens